Regional Weather Roundup
Issued by NWS State College, PA

Home | Current Version | Previous Version | Graphics & Text | Print | Product List | Glossary On
Versions: 1 2 3 4 5 6 7 8 9 10 11 12 13 14 15 16 17 18 19 20 21 22 23 24 25 26 27 28 29 30 31 32 33 34 35 36 37 38 39 40 41 42 43 44 45 46 47 48 49 50
000
ASUS41 KCTP 212003
RWRCTP

REGIONAL WEATHER ROUNDUP
NATIONAL WEATHER SERVICE STATE COLLEGE PA
400 PM EDT SUN MAY 21 2017

Note: "fair" indicates few or no clouds below 12,000 feet with no
significant weather and/or obstructions to visibility.

* = STATION THAT DOES NOT REPORT PRECIPITATION /E.G. RAIN...SNOW...ETC/
    THUNDER OR FOG.

PAZ002>004-007>009-013>016-020>023-029>032-212100-
WESTERN PENNSYLVANIA

CITY           SKY/WX    TMP DP  RH WIND       PRES   REMARKS
ERIE           RAIN      67  64  90 S15G22    30.00R FOG
MEADVILLE      RAIN      66  65  96 VRB5      30.04S FOG
FRANKLIN*      CLOUDY    63  57  82 S12       30.06S
NEW CASTLE     RAIN      67  66  97 VRB5      30.04F
BEAVER COUNTY  CLOUDY    66  64  94 S9        30.05F
BUTLER*        CLOUDY    68  64  88 S9        30.06F
PITTSBURGH INT LGT RAIN  69  67  93 S7        30.05F
PITTSBURGH     LGT RAIN  68  64  87 S8        30.06F
INDIANA*       PTSUNNY   63  57  82 SE15G21   30.13S
LATROBE        PTSUNNY   66  59  77 SW13      30.09F
WASHINGTON CO* CLOUDY    68  64  88 SW8       30.09S
$$

PAZ004>006-010>012-017>019-024>028-033>037-041-042-045-046-049>053-212100-
CENTRAL PENNSYLVANIA

CITY           SKY/WX    TMP DP  RH WIND       PRES   REMARKS
BRADFORD       LGT RAIN  62  49  62 SE14G22   30.10F
DUBOIS         LGT RAIN  61  46  57 SE15G23   30.10F
CLEARFIELD     PTSUNNY   61  45  55 VRB6G21   30.16F
JOHNSTOWN      CLOUDY    59  48  67 SE12      30.16F
ALTOONA        CLOUDY    61  40  45 S14       30.20F
STATE COLLEGE  CLOUDY    61  39  44 S7        30.19F
WILLIAMSPORT   CLOUDY    64  40  41 SE9       30.20F
SELINSGROVE    CLOUDY    64  39  39 S8        30.23F
FT INDIANTOWN  CLOUDY    65  40  39 S7        30.24F
CAPITAL CITY   CLOUDY    65  40  39 SE8       30.24F
HARRISBURG     CLOUDY    65  45  48 S8        30.24F
YORK           CLOUDY    64  48  56 SE9       30.24F
$$

PAZ038>040-043-044-047-048-054-055-060>062-067>071-212100-
EASTERN PENNSYLVANIA

CITY           SKY/WX    TMP DP  RH WIND       PRES   REMARKS
SCRANTON       CLOUDY    68  39  34 S9        30.22F
MOUNT POCONO   PTSUNNY   62  38  40 S15       30.25F
ALLENTOWN      CLOUDY    71  38  29 SE12G18   30.25F
QUAKERTOWN*    CLOUDY    70  39  32 S9G17     30.27F
READING        CLOUDY    68  43  40 SE9       30.24F
LANCASTER      CLOUDY    67  43  41 S10       30.24F
COATESVILLE    CLOUDY    66  43  42 VRB6      30.28F
POTTSTOWN      CLOUDY    68  37  32 S9        30.27F
BLUE BELL      CLOUDY    68  37  32 S12G17    30.28S
DOYLESTOWN     CLOUDY    68  39  34 VRB7      30.26F
WILLOW GROVE   NOT AVBL
NORTH PHILA    MOSUNNY   69  38  32 SE15G21   30.29F
PHILADELPHIA   PTSUNNY   72  40  31 SE13      30.26F
$$




USA.gov is the U.S. government's official web portal to all federal, state and local government web resources and services.